Weather History for CYUL - April, 2013

Change the Weather History Date:

Tuesday, April 2, 2013

  Actual Average Record
Temperature  
Mean Temperature 24 °F -  
Max Temperature 30 °F 40 °F 60 °F (2009)
Min Temperature 19 °F 27 °F 19 °F (2013)
Degree Days  
Heating Degree Days 40    
Moisture  
Dew Point 8 °F    
Average Humidity 46    
Maximum Humidity 63    
Minimum Humidity 23    
Precipitation  
Precipitation 0.00 in - - ()
Sea Level Pressure  
Sea Level Pressure 29.81 in    
Wind  
Wind Speed 17 mph ()    
Max Wind Speed 29 mph    
Max Gust Speed 39 mph    
Visibility 15.0 miles    
Events      
Averages and records for this station are not official NWS values.
T = Trace of Precipitation, MM = Missing Value Source: Averaged Metar Reports

Daily Weather History Graph

Daily Weather History Graph

Search for Another Location

Airport or City:

Trip Planner

Search our weather history database for the weather conditions in past years. The results will help you decide how hot, cold, wet, or windy it might be!

Date:

Astronomy

Apr. 02, 2013 Rise Set
Actual Time 6:32 AM EDT 7:24 PM EDT
Civil Twilight 6:02 AM EDT 7:54 PM EDT
Nautical Twilight 5:27 AM EDT 8:30 PM EDT
Astronomical Twilight 4:49 AM EDT 9:08 PM EDT
Moon 1:39 AM EDT (4/2) 11:09 AM EDT (4/2)
Length of Visible Light 13h 51m
Length of Day
12h 51m
Waning Gibbous, 56% of the Moon is Illuminated
Apr 2
Waning Gibbous
Apr 3
Last Quarter
Apr 10
New
Apr 18
First Quarter
Apr 25
Full

Hourly Weather History & Observations

Time (EDT) Temp. Windchill Dew Point Humidity Pressure Visibility Wind Dir Wind Speed Gust Speed Precip Events Conditions
12:00 AM 24.8 °F 10.0 °F 10.4 °F 54% 29.79 in 15.0 mi West 21.9 mph 27.6 mph N/A   Partly Cloudy
1:00 AM 23.0 °F 9.6 °F 8.6 °F 54% 29.80 in 15.0 mi West 16.1 mph - N/A   Clear
2:00 AM 22 °F - 8 °F 39% 29.80 in 15 mi West 13.8 mph - -   Partly Cloudy
2:00 AM 23.0 °F 10.6 °F 6.8 °F 50% 29.80 in 15.0 mi West 13.8 mph 21.9 mph N/A   Clear
3:00 AM 21.2 °F 7.8 °F 10.4 °F 63% 29.80 in 15.0 mi West 15.0 mph - N/A   Partly Cloudy
4:00 AM 21.2 °F 7.8 °F 8.6 °F 58% 29.80 in 15.0 mi West 15.0 mph 21.9 mph N/A   Partly Cloudy
5:00 AM 21.2 °F 10.9 °F 10.4 °F 63% 29.80 in 15.0 mi West 9.2 mph 18.4 mph N/A   Scattered Clouds
6:00 AM 21.2 °F 7.3 °F 8.6 °F 58% 29.81 in 15.0 mi West 16.1 mph - N/A   Partly Cloudy
7:00 AM 19.4 °F 5.5 °F 5.0 °F 54% 29.83 in 15.0 mi West 15.0 mph 21.9 mph N/A   Partly Cloudy
8:00 AM 21 °F - 6 °F 38% 29.83 in 15 mi West 16.1 mph - -   Scattered Clouds
8:00 AM 21.2 °F 6.8 °F 6.8 °F 54% 29.83 in 15.0 mi West 17.3 mph - N/A   Partly Cloudy
9:00 AM 23.0 °F 8.0 °F 6.8 °F 50% 29.83 in 30.0 mi West 20.7 mph 32.2 mph N/A   Partly Cloudy
10:00 AM 23.0 °F 8.7 °F 6.8 °F 50% 29.82 in 30.0 mi West 18.4 mph 29.9 mph N/A   Mostly Cloudy
11:00 AM 23.0 °F 7.6 °F 5.0 °F 46% 29.83 in 15.0 mi West 21.9 mph 32.2 mph N/A   Mostly Cloudy
12:00 PM 24.8 °F 9.6 °F 5.0 °F 43% 29.82 in 15.0 mi West 23.0 mph 36.8 mph N/A   Overcast
1:00 PM 24.8 °F 8.4 °F 8.6 °F 50% 29.81 in 15.0 mi West 27.6 mph - N/A   Mostly Cloudy
2:00 PM 26 °F - 8 °F 32% 29.81 in 15 mi WSW 26.5 mph - -   Mostly Cloudy
2:00 PM 26.6 °F 12.0 °F 8.6 °F 47% 29.81 in 15.0 mi West 23.0 mph 36.8 mph N/A   Mostly Cloudy
3:00 PM 28.4 °F 13.0 °F 8.6 °F 43% 29.79 in 15.0 mi West 28.8 mph 39.1 mph N/A   Mostly Cloudy
4:00 PM 28.4 °F 14.1 °F 10.4 °F 47% 29.78 in 15.0 mi West 24.2 mph 38.0 mph N/A   Overcast
5:00 PM 30.2 °F 16.5 °F 10.4 °F 44% 29.78 in 15.0 mi West 24.2 mph 35.7 mph N/A   Overcast
6:00 PM 30.2 °F 15.7 °F 8.6 °F 40% 29.79 in 15.0 mi West 27.6 mph 39.1 mph N/A   Overcast
7:00 PM 30.2 °F 16.8 °F 8.6 °F 40% 29.81 in 15.0 mi West 23.0 mph 33.4 mph N/A   Overcast
8:00 PM 30 °F - 6 °F 23% 29.83 in 15 mi West 20.7 mph - -   Overcast
8:00 PM 30.2 °F 17.8 °F 6.8 °F 37% 29.82 in 15.0 mi West 19.6 mph 31.1 mph N/A   Overcast
9:00 PM 30.2 °F 17.8 °F 6.8 °F 37% 29.85 in 15.0 mi West 19.6 mph 28.8 mph N/A   Mostly Cloudy
10:00 PM 28.4 °F 16.6 °F 6.8 °F 40% 29.86 in 15.0 mi West 16.1 mph 23.0 mph N/A   Mostly Cloudy
11:00 PM 28.4 °F 15.4 °F 6.8 °F 40% 29.87 in 15.0 mi West 19.6 mph 27.6 mph N/A   Mostly Cloudy